Le nostre stazioni meteo in Italia

Pubblicità
Il mio iltempo24.it
Dunstaffnage, Gran Bretagna (99006): Temperatura & dewpoint: 17.01.2017 18:00:00 - 23.01.2017 18:00:00 (GMT)Dunstaffnage, Gran Bretagna (99006): Temperatura -20cm: 17.01.2017 18:00:00 - 23.01.2017 18:00:00 (GMT)Dunstaffnage, Gran Bretagna (99006): velocità del vento: 17.01.2017 18:00:00 - 23.01.2017 18:00:00 (GMT)Dunstaffnage, Gran Bretagna (99006): direzione del vento: 17.01.2017 18:00:00 - 23.01.2017 18:00:00 (GMT)Dunstaffnage, Gran Bretagna (99006): precipitazioni: 17.01.2017 18:00:00 - 23.01.2017 18:00:00 (GMT)
Data & Tempo tt [°C] td [°C] tt -20cm [°C] ff [km/h] ff [kn] dd rr [mm]
23.01.2017 18:00:00 6,5 4,1 - 11 6 ESE 0,0
23.01.2017 17:00:00 6,6 3,9 - 13 7 ESE 0,0
23.01.2017 16:00:00 6,4 3,7 - 15 8 E 0,0
23.01.2017 15:00:00 6,0 3,3 - 9 5 ESE 0,0
23.01.2017 14:00:00 5,8 2,4 - 15 8 E 0,0
23.01.2017 13:00:00 5,8 1,6 - 11 6 ESE 0,0
23.01.2017 12:00:00 5,5 1,1 - 15 8 E 0,0
23.01.2017 11:00:00 3,8 0,6 - 16 9 E 0,0
23.01.2017 10:00:00 2,4 -0,2 - 13 7 ESE 0,0
23.01.2017 09:00:00 1,9 -0,4 5,2 15 8 ESE 0,0
23.01.2017 08:00:00 2,1 -0,3 - 15 8 ESE 0,0
23.01.2017 07:00:00 2,3 -0,4 - 11 6 ESE 0,0
23.01.2017 06:00:00 2,9 0,6 - 13 7 ESE 0,0
23.01.2017 05:00:00 3,5 1,8 - 9 5 SE 0,0
23.01.2017 04:00:00 4,1 2,2 - 15 8 ESE 0,0
23.01.2017 03:00:00 4,3 2,3 - 9 5 SE 0,0
23.01.2017 02:00:00 4,4 1,9 - 4 2 S 0,0
23.01.2017 01:00:00 3,5 2,4 - 11 6 ENE 0,0
23.01.2017 00:00:00 3,5 2,4 - 8 4 E 0,0
22.01.2017 23:00:00 3,6 2,5 - 5 3 ESE 0,0
22.01.2017 22:00:00 3,6 2,7 - 9 5 ENE 0,0
22.01.2017 21:00:00 3,9 2,8 - 5 3 ENE 0,0
22.01.2017 20:00:00 3,8 3,0 - 9 5 ENE 0,0
22.01.2017 19:00:00 3,8 3,0 - 8 4 ENE 0,0
22.01.2017 18:00:00 3,7 2,6 - 5 3 E 0,0
22.01.2017 17:00:00 3,9 2,9 - 8 4 ESE 0,0
22.01.2017 16:00:00 3,9 2,9 - 8 4 E 0,0
22.01.2017 15:00:00 3,8 2,8 - 8 4 E 0,0
22.01.2017 14:00:00 3,6 2,7 - 8 4 E 0,0
22.01.2017 13:00:00 3,3 2,5 - 8 4 E 0,0
22.01.2017 12:00:00 3,1 2,4 - 9 5 E 0,0
22.01.2017 11:00:00 3,1 2,3 - 13 7 E 0,2
22.01.2017 10:00:00 3,1 2,3 - 11 6 E 0,0
22.01.2017 09:00:00 2,9 1,9 5,5 9 5 ENE 0,2
22.01.2017 08:00:00 3,3 1,4 - 9 5 E 0,0
22.01.2017 07:00:00 3,5 1,4 - 9 5 E 0,0
22.01.2017 06:00:00 3,7 1,7 - 13 7 ENE 0,0
22.01.2017 05:00:00 3,9 1,8 - 15 8 E 0,0
22.01.2017 04:00:00 3,9 1,5 - 15 8 E 0,0
22.01.2017 03:00:00 4,6 1,5 - 13 7 ESE 0,0
22.01.2017 02:00:00 4,6 1,5 - 11 6 E 0,0
22.01.2017 01:00:00 4,5 0,9 - 9 5 SE 0,0
22.01.2017 00:00:00 4,6 0,9 - 13 7 ESE 0,0
21.01.2017 23:00:00 4,7 0,6 - 11 6 E 0,0
21.01.2017 22:00:00 4,8 0,6 - 9 5 E 0,0
21.01.2017 21:00:00 4,8 0,6 - 13 7 ESE 0,0
21.01.2017 20:00:00 4,3 1,0 - 4 2 ESE 0,0
21.01.2017 19:00:00 3,8 1,3 - 5 3 E 0,0
21.01.2017 18:00:00 3,9 -0,1 - 9 5 SE 0,0
21.01.2017 17:00:00 2,4 -0,4 - 5 3 SSE 0,0
21.01.2017 16:00:00 5,4 -1,1 - 4 2 SE 0,0
21.01.2017 15:00:00 6,8 -0,3 - 5 3 SSE 0,0
21.01.2017 14:00:00 6,8 -0,1 - 8 4 SE 0,0
21.01.2017 13:00:00 6,2 0,8 - 9 5 E 0,0
21.01.2017 12:00:00 5,1 2,6 - 2 1 S 0,0
21.01.2017 11:00:00 3,6 1,4 - 4 2 OSO 0,0
21.01.2017 10:00:00 1,1 -0,2 - 2 1 E 0,0
21.01.2017 09:00:00 0,9 -0,1 6,4 4 2 E 0,0
21.01.2017 08:00:00 3,0 0,9 - 9 5 ENE 0,0
21.01.2017 07:00:00 1,3 0,7 - 4 2 SE 0,0
21.01.2017 06:00:00 1,1 0,5 - 2 1 SSO 0,0
21.01.2017 05:00:00 3,1 1,1 - 4 2 E 0,0
21.01.2017 04:00:00 4,3 2,2 - 13 7 E 0,0
21.01.2017 03:00:00 3,7 2,4 - 11 6 E 0,0
21.01.2017 02:00:00 4,2 2,5 - 5 3 E 0,0
21.01.2017 01:00:00 5,3 3,3 - 5 3 ENE 0,0
21.01.2017 00:00:00 5,5 3,3 - 5 3 E 0,0
20.01.2017 23:00:00 5,3 3,3 - 8 4 E 0,0
20.01.2017 22:00:00 5,2 3,2 - 5 3 E 0,0
20.01.2017 21:00:00 5,2 3,6 - 4 2 S 0,0
20.01.2017 20:00:00 5,4 4,0 - 4 2 ENE 0,0
20.01.2017 19:00:00 5,2 3,9 - 9 5 E 0,0
20.01.2017 18:00:00 5,3 3,8 - 4 2 ENE 0,0
20.01.2017 17:00:00 5,3 3,6 - 8 4 E 0,0
20.01.2017 16:00:00 5,4 3,9 - 9 5 E 0,0
20.01.2017 15:00:00 5,6 3,6 - 11 6 E 0,0
20.01.2017 14:00:00 5,9 4,0 - 9 5 E 0,0
20.01.2017 13:00:00 5,7 3,6 - 5 3 E 0,0
20.01.2017 12:00:00 5,6 3,3 - 9 5 E 0,0
20.01.2017 11:00:00 5,4 2,7 - 11 6 E 0,0
20.01.2017 10:00:00 5,3 2,9 - 9 5 E 0,0
20.01.2017 09:00:00 5,3 2,7 7,0 5 3 SE 0,0
20.01.2017 08:00:00 5,3 2,8 - 11 6 ESE 0,0
20.01.2017 07:00:00 5,4 2,9 - 11 6 ESE 0,0
20.01.2017 06:00:00 5,7 2,9 - 8 4 ESE 0,0
20.01.2017 05:00:00 6,1 3,6 - 8 4 S 0,0
20.01.2017 04:00:00 6,4 3,6 - 5 3 S 0,0
20.01.2017 03:00:00 6,7 4,2 - 5 3 S 0,0
20.01.2017 02:00:00 7,0 4,7 - 5 3 SSE 0,0
20.01.2017 01:00:00 7,2 4,8 - 8 4 SSE 0,0
20.01.2017 00:00:00 7,4 5,0 - 9 5 SSE 0,0
19.01.2017 23:00:00 7,4 5,2 - 4 2 SSO 0,0
19.01.2017 22:00:00 7,4 5,8 - 4 2 SO 0,0
19.01.2017 21:00:00 7,6 6,0 - 5 3 SSO 0,0
19.01.2017 20:00:00 7,8 6,1 - 4 2 SSO 0,0
19.01.2017 19:00:00 7,9 6,3 - 5 3 SSO 0,0
19.01.2017 18:00:00 8,0 6,5 - 9 5 SO 0,0
19.01.2017 17:00:00 8,0 6,7 - 5 3 SSO 0,0
19.01.2017 16:00:00 8,2 6,6 - 9 5 SSO 0,0
19.01.2017 15:00:00 8,3 6,7 - 9 5 SSO 0,0
19.01.2017 14:00:00 8,3 6,5 - 11 6 SSO 0,0
19.01.2017 13:00:00 8,5 6,6 - 13 7 SO 0,0
19.01.2017 12:00:00 8,6 6,8 - 9 5 SO 0,0
19.01.2017 11:00:00 8,5 6,5 - 13 7 SO 0,0
19.01.2017 10:00:00 8,4 6,4 - 11 6 SSO 0,0
19.01.2017 09:00:00 8,0 6,5 7,2 5 3 SO 0,0
19.01.2017 08:00:00 8,2 6,2 - 5 3 SSO 0,0
19.01.2017 07:00:00 7,5 5,8 - 4 2 E 0,0
19.01.2017 06:00:00 8,1 5,4 - 5 3 S 0,0
19.01.2017 05:00:00 7,6 5,7 - 5 3 SSE 0,0
19.01.2017 04:00:00 8,1 5,4 - 2 1 SO 0,0
19.01.2017 03:00:00 8,3 5,7 - 5 3 SSO 0,0
19.01.2017 02:00:00 8,2 6,1 - 5 3 SSO 0,0
19.01.2017 01:00:00 8,0 6,6 - 5 3 S 0,2
19.01.2017 00:00:00 7,7 6,6 - 5 3 S 0,0
18.01.2017 23:00:00 7,6 6,4 - 5 3 SSO 0,0
18.01.2017 22:00:00 7,5 6,7 - 9 5 S 0,0
18.01.2017 21:00:00 7,4 6,7 - 8 4 SSO 0,0
18.01.2017 20:00:00 7,7 6,9 - 5 3 S 0,2
18.01.2017 19:00:00 7,8 6,8 - 4 2 SSE 0,0
18.01.2017 18:00:00 8,0 6,8 - 11 6 S 0,0
18.01.2017 17:00:00 8,6 6,5 - 11 6 SSO 0,0
18.01.2017 16:00:00 8,7 6,6 - 13 7 SO 0,0
18.01.2017 15:00:00 8,6 7,3 - 15 8 SSO 0,0
18.01.2017 14:00:00 8,5 7,5 - 15 8 SO 0,0
18.01.2017 13:00:00 8,4 7,5 - 5 3 SSO 0,0
18.01.2017 12:00:00 9,0 6,6 - 9 5 S 0,0
18.01.2017 11:00:00 8,6 6,9 - 8 4 S 0,0
18.01.2017 10:00:00 8,3 6,2 - 8 4 S 0,0
18.01.2017 09:00:00 8,3 6,1 7,2 8 4 S 0,0
18.01.2017 08:00:00 8,3 6,5 - 11 6 S 0,0
18.01.2017 07:00:00 8,5 6,7 - 5 3 SSO 0,0
18.01.2017 06:00:00 8,6 6,9 - 8 4 S 0,0
18.01.2017 05:00:00 8,7 6,4 - 8 4 S 0,0
18.01.2017 04:00:00 8,6 6,4 - 8 4 SSO 0,0
18.01.2017 03:00:00 8,5 6,4 - 8 4 S 0,0
18.01.2017 02:00:00 8,6 6,0 - 8 4 SSO 0,0
18.01.2017 01:00:00 8,5 6,6 - 9 5 S 0,0
18.01.2017 00:00:00 8,7 7,0 - 11 6 S 0,0
17.01.2017 23:00:00 8,9 7,7 - 9 5 S 0,0
17.01.2017 22:00:00 8,9 7,6 - 4 2 S 0,0
17.01.2017 21:00:00 8,6 7,6 - 2 1 ENE 0,0
17.01.2017 20:00:00 9,1 7,8 - 4 2 O 0,0
17.01.2017 19:00:00 9,4 8,3 - 9 5 S 0,2
17.01.2017 18:00:00 9,3 8,8 - 9 5 S 0,0

tt = Temperatura
td = dewpoint
tt -20cm = Temperatura -20cm
ff = velocità del vento
dd = direzione del vento
rr = precipitazioni

Stazioni seguenti

WeatherPro
AMSI
MeteoEarth